Theta_e
313 313 313 313 313 312 312 311 311 310 310 306 303 305 298 296 294 306 310 313 306 298 292 296 294 291 293 297 297 297 295 293 295 293 295 293 295 293 292 291 290 292 291 291 290 291 288 290 289 292 293 295 297 299 300 301 299 300 298 302 304 313 301 299 300 303 306 309 310 310 311 310 307 306 306 304 301 302 298 297 300 296 297 295 295 295 298
313 313 313 313 313 312 312 311 311 311 310 307 306 301 296 298 298 301 310 310 305 296 288 288 290 292 295 295 293 297 295 294 293 293 294 293 292 291 291 293 294 291 294 292 289 292 285 292 291 291 295 292 300 299 299 300 296 297 297 297 304 296 301 300 296 295 297 301 306 306 309 309 305 304 305 306 305 305 304 303 305 297 297 297 293 289 297
313 313 313 312 312 312 311 311 311 311 311 310 306 299 299 299 301 301 304 307 303 293 295 292 290 291 291 291 290 292 294 296 295 294 293 295 294 293 292 293 293 292 293 291 293 293 291 288 293 294 293 293 299 299 299 299 297 300 303 310 305 298 297 297 293 290 289 291 292 294 298 302 305 306 305 305 304 303 301 297 299 290 300 300 295 295 303
312 313 313 312 312 312 311 311 311 312 311 310 306 302 298 294 288 297 299 301 300 299 300 297 293 291 290 289 290 292 291 295 297 296 294 296 295 294 294 294 294 292 292 290 290 290 293 290 290 292 291 293 296 298 298 298 298 303 309 307 301 296 300 299 298 295 295 300 304 309 307 304 301 303 304 304 305 305 304 300 298 292 300 298 299 302 302
313 313 313 312 312 311 311 311 312 312 310 310 306 303 298 297 292 292 290 296 297 295 296 294 295 290 293 287 291 289 291 293 293 297 291 296 294 293 293 293 290 290 290 289 289 290 290 292 291 290 291 293 294 298 298 298 301 306 304 305 298 297 296 299 302 302 303 305 306 308 308 303 304 303 303 304 304 304 302 299 297 303 300 290 303 306 304
312 312 313 312 312 311 312 312 312 311 310 309 308 297 298 289 294 296 298 291 289 290 291 295 293 295 294 290 294 291 290 291 289 294 295 295 296 291 293 293 293 291 290 289 286 289 288 289 287 291 292 292 293 293 297 296 301 303 298 301 296 293 292 300 300 300 304 306 306 308 308 307 305 304 304 303 304 303 301 302 305 305 298 295 306 307 306
312 312 312 313 312 312 312 312 311 311 310 309 306 296 298 296 296 295 299 291 293 293 294 296 294 293 293 292 292 290 290 289 292 291 292 294 292 294 287 289 291 292 292 290 287 289 284 285 290 289 290 290 291 291 293 297 299 297 296 298 298 294 293 298 298 298 302 304 306 308 307 308 307 305 305 305 304 303 303 303 306 306 305 308 313 309 308
312 312 313 313 313 312 313 312 311 311 309 309 303 301 294 293 292 291 296 295 293 294 295 295 294 291 294 289 291 291 290 289 292 294 292 288 290 294 290 290 292 292 292 292 288 289 290 290 287 292 291 291 293 291 291 292 295 296 294 295 297 293 292 299 297 297 300 304 306 306 306 306 305 307 306 305 305 304 304 304 304 308 305 306 312 310 307
313 312 313 313 312 312 312 312 312 311 309 304 302 300 303 300 300 300 293 289 292 295 294 293 292 290 292 289 291 292 291 290 293 292 295 292 290 292 290 292 292 293 292 291 291 293 293 292 292 293 293 288 293 291 291 294 290 292 292 294 294 294 291 295 295 293 297 303 304 305 306 305 304 304 305 305 304 301 303 303 304 304 304 306 308 305 306
312 312 312 312 312 312 312 311 311 311 310 305 303 298 306 303 303 302 297 288 294 291 293 294 292 288 292 292 292 292 292 294 295 290 295 296 297 295 293 293 292 291 291 290 292 295 295 294 295 296 296 296 295 296 295 295 292 291 291 295 292 293 291 290 291 290 293 300 302 303 304 303 299 301 305 311 310 307 305 306 307 307 310 304 302 304 310
312 312 312 312 312 313 313 312 312 312 310 304 302 302 304 300 297 298 297 288 291 292 291 291 290 293 294 295 293 295 294 294 294 288 289 295 294 297 296 294 291 290 290 293 298 298 298 298 298 298 296 295 295 295 296 296 295 294 292 292 293 293 292 290 294 289 291 297 300 303 298 290 294 310 310 312 309 306 303 303 305 306 309 305 309 311 315
312 313 313 313 313 313 313 313 313 311 310 310 308 303 306 306 303 299 293 286 288 292 290 289 291 293 293 294 294 292 292 293 293 297 291 293 295 297 296 295 294 288 297 300 300 299 299 299 298 298 297 296 295 295 295 294 294 297 296 293 292 291 292 291 293 290 290 295 299 297 290 293 307 309 311 312 313 310 306 308 307 307 308 310 311 311 313
312 312 313 313 313 313 313 313 313 311 310 311 308 302 308 309 302 298 295 290 286 289 288 290 294 294 294 294 293 294 295 296 296 296 295 294 294 295 296 295 293 295 300 299 299 297 293 291 292 293 293 295 295 296 294 294 294 295 296 296 293 291 290 291 291 292 294 298 299 290 291 304 307 309 312 315 310 307 308 308 313 317 310 310 310 311 315
313 313 313 313 313 313 313 313 313 313 311 310 308 306 308 307 300 298 296 290 288 292 293 292 293 293 294 294 293 294 295 295 296 297 293 296 293 294 296 298 298 301 300 300 296 295 290 291 286 288 289 292 291 290 293 295 295 294 294 295 296 294 293 292 289 294 289 291 296 295 305 302 305 306 309 309 306 308 304 300 310 318 319 318 314 313 314
313 313 313 313 313 313 313 313 313 313 313 310 310 309 307 307 305 301 302 296 288 291 293 287 291 293 293 294 295 292 292 292 292 292 296 298 295 297 297 299 301 301 301 297 293 294 289 288 284 283 285 285 282 284 293 290 295 296 295 296 296 296 292 294 289 289 293 289 290 295 294 293 298 306 310 313 314 312 311 312 311 317 319 323 317 312 312
313 313 313 313 313 314 313 313 313 313 312 309 310 308 308 310 308 305 301 296 293 285 291 295 296 294 293 293 295 293 291 291 290 292 293 294 295 298 300 301 302 303 300 297 295 291 290 284 283 282 281 284 288 286 286 291 290 294 296 296 295 296 296 294 291 288 290 290 290 292 292 298 301 305 311 313 313 313 312 311 306 315 317 323 322 321 322
313 313 313 313 314 314 314 314 313 313 312 310 309 308 307 312 307 304 300 298 295 290 297 299 298 297 294 293 295 294 294 291 292 288 288 290 293 296 298 301 302 300 298 294 292 290 287 286 287 285 287 289 285 285 290 289 289 289 293 294 293 292 292 293 290 289 291 291 290 291 297 295 301 307 310 314 316 315 310 299 302 313 316 323 322 321 320
313 313 313 313 314 314 314 314 314 314 312 312 310 307 307 313 311 308 303 298 293 294 298 300 297 294 293 295 293 296 297 296 295 295 292 294 295 295 296 298 294 300 301 292 292 287 285 285 282 283 283 291 291 291 283 290 287 289 289 289 288 289 290 291 287 289 291 293 290 294 299 305 306 308 312 313 316 311 301 295 307 314 318 322 322 321 321
313 313 313 314 314 314 314 314 314 314 314 310 311 309 308 311 312 309 304 300 297 291 300 303 303 299 300 302 299 299 298 296 296 292 290 290 294 298 298 297 298 292 298 291 292 287 285 284 290 288 285 288 291 285 291 287 287 293 293 288 288 290 292 292 291 288 288 290 290 291 299 304 306 311 312 313 312 301 299 313 317 318 319 322 322 321 322
313 313 313 314 314 314 314 314 314 314 314 312 310 306 309 313 313 310 304 298 299 296 300 301 301 298 302 299 296 295 297 297 298 294 291 288 296 297 294 290 298 298 294 295 287 291 286 283 285 290 285 287 289 294 289 290 294 291 290 294 289 289 288 286 287 291 291 292 290 288 284 300 308 309 309 310 305 306 314 319 319 319 318 320 320 320 321
313 313 313 313 313 314 314 314 314 313 314 314 310 307 306 313 313 312 311 306 300 295 297 305 305 303 303 301 302 301 299 295 296 294 296 296 298 295 285 286 291 293 289 291 285 287 287 286 288 287 292 290 291 291 286 288 291 296 296 293 293 298 289 288 290 296 288 289 287 289 303 306 308 306 301 308 311 316 321 319 313 316 317 317 318 318 320
313 313 313 313 313 314 314 313 314 313 313 313 310 310 304 309 314 314 313 310 302 298 300 305 307 305 306 307 306 306 304 302 303 303 297 295 299 296 295 297 295 295 297 297 291 291 292 290 293 288 286 289 294 288 290 286 285 292 298 297 288 298 295 297 290 298 294 294 298 304 305 307 308 310 308 310 314 317 317 315 313 312 314 318 316 317 320
313 313 313 313 313 314 313 313 313 313 313 314 312 309 305 309 311 315 312 303 306 306 307 306 307 307 308 308 309 309 308 309 307 305 304 298 295 298 297 297 295 300 298 300 292 292 293 293 288 293 290 291 289 288 290 290 288 292 289 297 296 300 300 302 299 297 303 301 302 307 307 305 306 308 309 311 312 316 315 313 312 313 314 315 313 316 319
313 313 313 313 313 313 313 313 313 313 313 313 312 309 308 311 312 311 308 306 302 298 302 304 301 298 300 301 306 309 309 308 308 307 308 306 294 295 303 302 303 301 300 300 301 295 295 294 293 295 288 292 294 288 286 285 288 293 292 292 296 299 301 298 293 299 294 291 305 303 302 307 306 307 309 310 311 313 314 314 313 314 314 314 315 316 317
313 313 313 313 313 313 313 313 313 313 313 312 313 314 314 311 313 311 305 298 298 296 291 296 299 303 306 308 309 307 307 308 309 307 306 306 303 297 295 300 304 298 297 301 304 300 301 292 293 293 287 294 294 286 293 289 289 296 288 291 293 293 303 296 297 297 295 295 300 303 306 309 307 307 308 308 312 313 313 313 315 314 314 315 314 315 315
312 313 313 313 313 313 313 313 313 313 312 312 313 310 310 311 315 314 310 308 306 301 293 292 297 308 309 306 304 307 310 309 308 306 305 305 305 304 302 303 302 307 303 303 301 297 296 294 295 293 290 291 301 291 289 293 292 295 292 292 296 297 301 292 297 294 296 299 302 304 305 306 306 306 307 309 309 310 311 312 315 316 315 314 314 315 314
312 313 313 313 313 313 313 312 312 312 313 312 312 312 311 313 316 311 307 306 300 295 297 293 299 303 306 303 306 308 309 308 307 306 305 305 304 304 303 303 301 303 301 299 300 298 298 296 294 291 293 292 297 294 295 293 293 291 291 295 299 297 292 297 296 292 291 292 298 304 296 297 301 306 306 308 309 309 310 312 312 314 316 314 312 313 315
312 312 312 313 312 312 312 312 312 312 311 312 312 313 315 314 314 314 314 311 303 295 295 295 296 300 306 303 307 308 307 307 306 305 305 304 304 303 302 301 302 299 299 298 294 295 294 291 291 296 296 297 293 291 296 296 296 293 292 294 297 294 296 296 292 291 290 298 300 301 301 301 306 305 308 309 311 309 309 310 311 312 312 315 314 312 313
312 312 312 312 312 312 312 312 312 312 312 310 314 313 313 316 316 315 314 315 311 303 300 300 302 300 294 299 307 307 309 309 308 306 304 303 303 303 302 302 301 301 300 300 298 297 294 294 297 294 293 298 294 290 292 287 287 286 291 297 299 300 301 299 299 299 299 302 302 303 301 300 303 305 307 310 310 308 308 311 311 312 311 312 314 316 315
312 312 312 312 312 312 312 312 313 313 313 312 313 310 306 307 316 315 314 314 312 308 298 295 291 296 305 304 303 306 306 308 308 306 306 304 303 303 307 305 305 306 304 300 298 293 297 296 296 298 299 303 294 292 289 289 288 290 296 297 299 299 300 301 302 299 297 302 303 303 303 304 305 306 306 308 310 313 308 308 310 311 312 314 314 315 316
312 312 312 312 311 312 312 313 314 313 312 312 311 305 303 299 307 315 313 314 313 307 301 300 295 300 299 305 305 303 305 307 306 305 306 306 307 307 308 309 309 309 301 301 299 298 299 294 296 297 302 301 298 292 289 288 286 289 294 297 298 298 299 300 302 302 302 302 303 304 304 303 305 305 305 306 308 309 310 311 314 316 314 313 312 313 313
312 311 311 311 311 312 313 314 313 313 313 313 309 305 305 306 311 313 314 314 313 306 300 294 294 295 294 300 304 307 307 307 306 306 307 307 307 310 310 310 305 309 303 299 300 297 295 298 295 296 295 300 298 292 291 288 286 288 295 296 298 299 300 300 300 301 302 303 302 300 300 301 303 302 302 306 307 308 308 307 309 309 313 313 312 312 313
311 311 310 311 311 312 313 314 313 313 312 309 309 310 309 309 310 312 315 314 310 304 303 297 291 294 293 297 303 306 308 306 304 305 304 309 304 309 304 308 308 305 307 301 295 292 299 297 298 293 298 302 294 290 287 286 289 294 296 298 297 297 298 299 300 301 301 301 301 297 297 299 302 305 307 308 308 308 308 308 308 309 309 310 309 310 311
311 311 310 311 312 313 313 312 313 310 311 309 309 308 310 309 310 309 314 314 307 307 303 297 293 292 294 304 298 304 308 302 302 305 300 308 308 306 302 304 304 298 302 296 299 298 299 298 293 294 297 294 297 289 285 289 294 295 296 295 296 297 297 298 298 298 299 301 302 302 302 303 305 305 305 306 305 307 309 308 308 307 306 307 308 309 312
310 310 311 310 311 312 312 312 313 313 311 312 313 313 311 309 311 313 314 311 301 299 299 298 297 293 294 296 298 301 309 305 300 304 301 305 311 303 304 298 300 293 296 306 298 296 293 293 298 291 287 293 288 285 287 289 291 292 294 297 300 301 301 298 298 299 300 301 302 302 304 304 303 302 303 304 305 306 306 306 307 307 305 306 307 308 311
311 312 312 312 312 312 316 313 311 311 312 313 312 313 314 314 314 316 317 315 307 300 299 298 297 294 295 291 293 301 309 304 306 307 306 306 304 307 306 301 293 298 304 299 291 296 290 299 294 286 289 286 286 287 290 293 293 297 298 298 301 304 304 303 302 301 302 302 302 303 304 304 303 303 304 304 305 305 305 305 306 306 306 306 306 308 310
311 312 311 309 312 314 312 313 317 316 314 313 313 315 314 314 315 314 312 310 312 310 301 300 295 298 299 297 300 305 308 299 307 304 304 302 300 304 303 299 294 299 299 296 296 294 297 303 292 285 285 285 288 295 297 300 299 298 298 300 302 304 304 306 309 305 303 303 303 302 303 303 303 304 304 304 305 306 305 305 305 305 305 306 307 308 309
310 311 314 313 313 313 314 316 317 316 318 315 314 311 309 309 305 305 305 302 306 307 303 302 295 302 304 300 298 308 307 303 308 302 302 306 301 300 304 299 298 299 289 293 298 305 299 296 288 285 286 293 297 299 301 301 301 302 301 301 302 303 303 304 305 307 305 302 301 302 303 303 303 304 304 304 305 305 305 306 307 308 308 308 308 310 310
311 314 312 315 315 312 313 317 316 316 313 314 315 310 308 308 305 303 304 305 304 301 305 302 302 307 303 302 305 312 306 302 302 303 298 305 301 296 303 294 300 300 290 293 297 305 290 291 289 286 286 296 297 299 302 303 302 302 302 302 302 302 303 302 304 303 304 306 307 307 306 304 304 304 305 305 306 307 307 307 308 308 308 309 309 311 313
316 315 317 317 315 316 316 316 316 314 314 310 312 310 306 308 304 297 313 299 299 306 307 301 310 309 308 305 304 304 311 306 299 298 301 303 309 298 301 300 301 295 286 287 293 306 290 286 288 287 288 295 297 301 302 302 301 301 302 302 303 302 302 302 302 304 305 305 308 311 312 312 311 307 306 306 306 306 307 307 308 308 309 309 312 315 318
322 322 321 316 318 322 316 315 315 315 313 311 311 310 308 296 308 310 307 300 300 303 312 306 310 306 309 310 310 304 313 314 311 312 307 300 308 305 299 290 302 291 288 287 298 302 290 288 288 287 290 296 298 301 302 301 301 301 302 302 303 302 302 302 302 303 303 303 305 306 308 309 310 311 311 310 309 308 308 308 308 308 309 311 315 320 320
320 317 317 318 317 321 319 315 315 314 315 314 303 293 299 304 311 310 307 296 298 304 305 308 303 303 305 308 308 311 311 316 313 309 304 298 306 302 299 301 302 290 286 296 302 296 291 286 286 288 295 299 301 302 302 301 302 301 301 302 302 302 302 301 301 302 302 302 303 304 305 306 306 307 309 310 311 312 313 313 315 315 317 318 320 320 319
309 308 312 317 321 319 319 307 315 313 293 292 292 291 298 293 298 297 301 307 308 306 307 314 309 313 314 314 311 313 311 315 307 306 304 299 307 306 299 293 294 287 293 303 297 291 287 286 286 291 297 300 302 302 302 302 303 302 302 302 302 302 303 302 302 301 302 302 301 302 303 304 305 306 308 308 307 308 308 310 311 313 314 314 313 313 314
320 321 319 322 314 318 314 292 310 307 294 295 292 289 295 294 296 300 297 299 305 305 309 306 308 307 302 312 308 310 311 312 313 308 304 306 301 297 296 289 292 299 304 295 292 287 288 291 293 296 299 300 301 302 303 303 303 303 302 302 303 302 302 303 302 301 301 302 301 301 302 302 303 304 306 306 307 305 305 306 309 311 310 310 309 309 310
319 316 308 304 297 304 297 286 305 295 290 294 296 296 296 293 296 299 297 305 306 302 307 311 308 309 305 312 315 311 309 304 313 304 297 302 297 298 294 290 298 299 292 288 291 291 291 289 296 298 299 299 301 302 304 304 304 303 303 302 302 301 301 301 301 301 300 300 300 301 299 300 301 302 303 304 305 306 305 305 306 306 307 307 307 307 308
316 301 298 294 290 293 294 291 293 291 304 305 299 299 298 300 301 301 305 306 304 305 304 306 307 311 308 310 305 303 310 306 303 301 303 302 295 290 299 304 300 291 290 289 286 285 287 292 296 298 301 301 302 304 305 305 305 305 304 301 302 302 301 301 302 302 301 300 300 300 300 300 299 300 301 302 303 303 303 304 306 306 306 305 305 306 307
310 316 301 297 292 296 310 292 295 302 301 302 302 302 302 302 304 304 306 306 304 306 307 311 307 310 305 306 309 310 307 307 301 301 303 295 293 298 303 294 288 289 285 284 285 287 291 295 298 300 302 302 303 304 304 304 304 304 303 304 304 304 304 303 302 302 303 302 301 300 300 299 299 299 300 300 301 302 304 304 304 304 305 305 305 306 306
297 309 304 292 290 296 294 301 310 306 304 304 303 304 305 307 304 303 306 306 306 307 306 306 303 308 307 312 312 298 300 302 300 298 301 298 301 295 289 290 287 290 290 287 288 293 295 298 299 301 302 304 303 304 304 304 304 304 304 304 304 304 304 303 302 303 303 303 303 301 301 300 300 299 299 298 299 301 302 303 304 304 304 304 304 305 305
318 298 295 294 303 301 300 303 303 300 302 304 304 304 303 303 302 304 305 306 306 307 307 305 303 305 298 302 300 298 296 300 293 290 300 296 291 286 287 284 286 285 292 293 293 296 296 300 302 303 303 303 304 304 304 305 305 305 305 305 305 305 305 305 305 304 304 304 303 304 303 303 301 300 300 299 298 299 301 302 303 303 304 304 304 304 304
299 297 309 297 303 301 303 304 302 299 302 303 303 302 303 303 302 304 306 305 307 309 311 310 309 300 299 299 292 296 293 300 297 294 294 290 291 292 290 285 287 288 291 295 297 299 301 303 303 302 303 302 304 304 304 304 306 306 306 308 307 307 305 305 305 305 305 304 303 303 305 305 304 303 302 300 301 302 302 302 302 303 303 304 304 304 305
312 300 302 312 304 301 304 297 296 297 299 300 302 301 303 302 302 304 308 308 306 305 306 298 300 297 292 292 290 288 290 302 296 292 291 290 293 292 288 287 290 294 297 301 302 303 302 303 303 303 303 303 303 304 305 305 305 305 306 307 307 307 307 307 306 305 305 306 307 304 303 303 304 305 306 307 306 305 305 305 305 305 305 305 305 305 304
298 296 302 306 309 307 305 307 304 302 303 303 303 304 306 304 310 308 313 307 304 299 296 302 299 293 290 289 293 298 302 297 291 292 290 292 295 290 290 291 293 295 298 299 300 302 304 305 305 304 304 303 304 304 305 305 305 304 305 306 306 306 306 306 307 307 306 306 306 307 307 308 308 307 307 306 305 304 303 303 306 307 307 307 306 306 304
Wind_Speed
20 19 19 19 19 18 18 19 20 20 20 13 11 10 7 9 11 16 19 16 14 9 7 8 4 5 6 10 9 10 10 8 8 7 6 8 7 9 8 8 11 7 10 12 11 11 10 11 8 14 12 13 9 16 23 21 23 17 11 19 9 25 5 5 11 9 13 13 14 17 17 16 14 13 12 9 12 14 6 5 5 7 4 8 3 3 4
20 19 19 18 18 17 17 17 19 20 18 11 11 7 7 8 11 13 13 12 13 8 6 7 8 8 9 6 10 11 10 10 9 8 9 7 5 8 9 10 8 12 11 10 11 10 7 5 15 9 14 13 15 22 17 23 16 14 11 9 15 10 7 6 4 2 6 6 4 16 16 13 11 12 13 12 6 15 7 4 3 6 9 7 4 5 2
19 18 18 18 17 17 16 16 17 18 18 14 9 7 8 8 7 8 10 11 10 7 9 10 9 9 13 13 13 11 8 9 10 8 9 6 7 6 6 9 10 10 11 10 9 8 8 8 7 12 9 11 17 15 18 24 17 15 20 21 15 10 11 7 4 4 8 9 7 9 16 17 10 9 13 16 15 13 12 9 4 5 5 9 5 3 2
19 18 18 18 18 17 16 16 15 17 16 15 9 6 8 8 7 7 8 10 9 5 11 10 12 10 12 12 10 11 10 8 9 9 7 11 9 7 10 8 9 10 10 9 9 9 6 6 7 8 9 12 10 12 24 19 17 23 25 21 15 6 8 8 7 4 6 5 4 7 11 11 13 13 13 16 18 10 10 6 3 8 4 7 5 4 4
19 19 19 18 17 17 16 15 15 15 15 14 8 7 4 6 5 9 10 9 5 10 9 12 12 10 12 7 9 12 13 11 9 7 6 5 3 8 4 9 9 8 10 10 11 9 9 7 9 7 11 11 12 23 17 19 18 23 18 21 14 6 7 8 8 10 11 15 15 14 13 18 18 16 14 15 21 19 9 12 9 6 7 7 3 9 7
21 22 22 19 17 16 15 14 14 14 14 13 7 6 5 3 6 8 8 7 7 11 8 12 13 14 13 8 10 11 11 11 10 8 8 10 2 5 3 7 8 11 11 12 10 8 6 7 8 8 8 12 14 18 19 15 13 16 13 15 9 10 8 8 14 14 12 15 14 13 11 4 14 17 14 15 18 22 17 8 9 8 7 7 4 10 7
24 23 22 20 17 15 14 13 12 12 13 9 5 5 2 2 5 7 9 5 7 9 14 16 13 13 11 8 10 10 10 11 9 9 11 7 6 5 7 10 10 10 10 10 8 7 7 5 5 7 9 9 13 9 19 14 11 14 12 15 9 10 7 16 17 16 14 13 11 13 13 2 4 9 19 14 15 22 21 9 7 13 6 5 8 10 9
24 22 21 20 16 14 14 13 11 10 10 8 6 3 3 4 5 4 7 6 9 10 9 10 10 10 10 7 9 12 13 12 10 10 11 9 8 6 10 12 11 11 10 8 9 12 7 4 7 8 12 9 3 8 4 12 17 14 13 11 14 10 9 21 16 11 9 8 8 12 12 10 7 1 4 19 14 15 19 16 9 8 9 8 9 9 8
23 22 20 19 17 14 14 12 10 9 4 6 2 3 1 4 3 4 6 8 6 8 8 8 8 8 7 6 8 8 12 15 14 13 13 13 9 8 12 13 15 12 9 8 11 8 8 9 9 9 10 8 4 3 5 10 16 18 13 8 14 12 12 14 11 9 7 5 6 12 11 8 7 4 4 2 2 12 18 17 11 5 6 10 4 7 4
23 22 22 21 17 15 14 13 10 10 3 5 2 4 1 2 4 3 1 6 5 8 9 8 7 5 4 7 10 9 14 15 13 11 7 10 9 9 10 11 12 12 10 10 10 10 11 12 10 9 10 8 7 8 11 11 12 12 12 12 11 9 10 12 13 10 7 12 9 11 10 8 7 7 1 0 0 8 13 15 12 5 9 11 6 7 5
24 23 22 21 20 18 17 13 11 10 5 6 4 4 1 3 4 3 1 6 4 6 7 7 6 7 9 10 12 12 14 14 12 10 6 11 14 15 15 13 11 10 8 10 11 10 12 12 13 10 11 13 10 9 12 15 13 13 11 10 10 12 11 9 7 6 10 15 14 11 4 3 5 0 2 1 0 10 12 18 13 8 5 4 7 6 3
22 22 22 21 19 18 16 13 11 10 7 6 5 5 4 3 3 2 2 4 6 5 6 7 8 10 12 13 12 13 14 14 14 9 14 12 13 13 12 9 7 7 9 13 14 14 14 13 14 12 14 14 15 15 16 15 15 13 11 12 12 15 12 8 5 4 7 12 12 2 2 5 2 3 2 2 1 2 12 11 8 11 4 7 9 6 6
23 22 22 21 20 18 16 14 11 10 8 6 6 7 2 3 3 2 2 4 5 5 7 9 10 12 14 15 14 12 13 14 13 13 13 12 13 12 7 6 8 9 12 11 15 13 9 10 11 12 12 11 12 13 15 16 16 16 13 12 11 11 9 8 6 6 7 3 3 1 3 4 7 5 2 4 2 4 6 13 22 19 11 4 11 11 7
23 22 21 21 20 18 17 15 12 10 10 7 7 6 4 4 4 3 3 2 5 6 7 10 11 12 12 13 13 14 13 13 14 11 9 7 10 12 10 7 8 11 10 11 11 5 6 3 6 6 7 7 8 9 13 15 16 17 16 14 12 14 7 5 6 3 4 7 4 5 4 6 4 4 3 4 2 2 6 12 17 19 21 19 7 12 15
23 22 21 20 19 18 16 14 12 11 10 8 6 5 6 6 6 4 2 4 6 9 6 6 6 10 12 12 11 9 9 8 11 8 8 7 5 3 10 13 10 8 9 9 6 3 3 3 5 6 6 5 3 5 6 7 11 18 16 15 13 10 8 4 4 3 3 7 6 2 1 1 6 13 16 16 2 5 8 13 11 21 22 24 10 9 10
22 21 20 19 19 17 16 15 14 11 10 8 5 6 7 6 7 5 4 4 2 7 5 12 12 8 9 11 12 12 6 6 7 9 8 5 7 7 5 9 9 3 7 6 3 3 2 3 5 5 5 7 8 5 5 4 5 11 16 15 14 13 11 5 4 5 7 6 3 2 2 1 10 18 18 19 9 7 8 15 12 14 19 19 18 20 18
22 21 20 19 18 18 17 16 14 10 9 8 4 5 6 5 6 6 5 4 5 10 5 9 10 11 10 10 9 3 3 3 4 6 6 7 10 9 9 9 7 8 7 6 4 3 4 4 3 5 4 5 6 7 10 8 8 3 13 13 15 11 6 5 4 4 4 4 2 4 3 3 15 16 18 18 17 3 8 10 6 13 16 15 17 19 18
21 20 19 19 18 18 17 15 15 12 9 9 5 4 4 3 7 6 4 5 5 7 5 9 9 6 5 5 8 9 7 6 3 5 5 7 6 6 9 7 6 4 7 4 1 2 3 2 3 3 4 3 7 7 3 10 7 7 4 5 4 5 5 4 7 5 6 6 4 3 1 5 16 18 18 19 12 5 12 6 3 12 12 12 14 17 16
21 20 19 19 18 17 17 16 15 15 13 9 5 5 6 6 6 8 4 3 4 6 2 6 8 10 10 9 10 9 7 7 7 4 6 5 0 7 13 2 4 4 5 3 2 2 3 3 2 2 3 5 6 4 8 4 6 8 10 1 4 3 2 3 4 7 5 5 3 1 1 3 16 13 16 19 8 8 7 1 7 7 12 13 16 15 14
21 20 20 19 18 17 17 16 15 14 12 10 4 4 5 4 5 8 8 5 3 7 7 9 8 12 8 9 8 7 7 7 1 2 4 7 7 13 8 1 1 3 2 2 1 1 1 3 4 2 2 4 3 6 5 7 9 8 5 8 3 3 3 3 4 3 4 3 2 2 3 8 19 19 12 21 10 3 2 3 4 11 11 12 12 13 13
21 20 19 18 17 17 16 15 14 12 12 9 5 4 5 4 7 8 8 7 2 4 6 8 8 9 9 10 10 10 9 9 7 7 3 5 6 6 4 5 7 5 3 4 4 3 1 3 4 3 2 3 5 4 6 8 9 5 7 4 3 3 2 1 4 1 3 3 2 1 1 6 14 15 9 10 9 4 3 5 8 9 10 11 10 12 12
20 20 19 18 18 17 16 15 14 12 11 9 6 4 6 3 4 5 7 7 6 6 5 8 10 11 11 12 12 11 12 13 13 9 7 7 3 5 6 5 3 3 2 2 3 1 1 1 2 3 5 5 3 5 8 5 5 8 7 7 4 5 2 2 2 6 3 2 0 3 2 6 7 7 9 7 7 7 8 9 9 9 9 10 9 11 12
20 20 19 18 18 17 16 15 14 12 11 10 5 3 5 2 2 2 5 7 4 4 6 8 8 10 12 14 16 14 13 10 9 8 7 5 6 5 2 3 1 1 2 3 3 4 4 2 4 3 5 2 6 8 8 5 5 6 9 6 5 7 9 5 2 1 3 4 6 2 4 9 8 8 6 9 10 11 11 12 9 9 9 9 10 10 10
20 19 19 19 19 18 17 16 14 12 9 8 5 5 4 3 2 2 2 2 2 3 5 7 5 4 5 8 6 6 10 11 11 10 6 4 5 4 1 2 1 2 3 5 5 3 3 4 3 2 4 4 5 3 6 5 6 8 8 7 6 7 7 8 4 5 5 1 3 7 7 6 8 6 6 6 7 9 8 7 7 8 10 11 11 11 11
19 19 20 20 19 18 17 15 13 10 7 7 6 5 5 4 3 5 3 3 2 2 3 4 6 9 10 9 7 7 5 5 6 8 8 6 5 5 7 3 5 3 6 4 2 3 1 3 4 2 4 2 2 3 2 5 6 4 5 6 6 6 7 8 5 6 2 2 8 7 3 2 5 5 5 7 9 8 8 6 7 9 10 10 10 11 12
20 20 20 20 19 18 15 14 11 8 6 6 5 4 3 3 2 4 4 2 1 1 3 5 4 7 7 9 9 8 6 7 7 6 5 7 6 4 5 4 4 2 3 3 4 5 4 4 3 4 5 3 2 2 4 5 9 7 6 7 5 8 7 4 5 7 7 8 4 5 5 3 5 6 4 6 5 7 7 9 9 9 10 10 10 10 10
20 20 20 19 18 17 15 13 11 8 5 5 4 4 5 3 1 4 3 1 2 2 3 3 4 7 9 13 12 10 9 4 5 5 5 4 6 6 5 3 4 2 2 4 4 5 3 3 5 5 4 4 6 4 4 5 5 6 7 8 8 8 6 5 6 6 5 4 2 8 7 5 8 10 10 8 9 7 6 5 5 6 7 9 8 7 8
20 20 20 19 18 16 15 13 10 7 6 5 4 4 3 2 3 3 1 1 1 3 4 6 6 8 9 12 10 9 3 4 5 4 5 5 4 4 5 4 3 2 3 3 4 3 4 6 6 6 6 6 8 5 5 7 6 6 6 7 5 6 4 5 5 5 6 9 12 11 8 5 1 5 4 4 4 6 5 4 4 5 4 3 5 5 6
20 20 19 19 17 16 14 12 10 6 1 3 4 4 3 2 2 3 3 2 2 1 3 5 6 5 3 7 10 7 9 10 11 7 3 2 5 4 5 2 2 4 4 2 2 2 3 4 5 4 5 5 5 6 7 7 6 8 8 7 7 5 8 9 7 9 10 8 9 9 9 10 9 8 6 3 4 4 4 3 3 2 2 1 1 3 4
21 20 18 16 15 14 13 9 8 6 3 3 3 2 0 1 1 3 4 4 2 1 2 3 4 2 6 5 6 8 9 8 7 8 11 6 2 2 2 3 2 2 2 1 2 4 4 4 4 5 5 7 5 5 5 5 8 11 10 11 13 14 13 11 9 7 8 9 11 11 10 11 9 7 6 5 4 1 3 3 2 3 2 2 3 3 4
20 18 16 14 13 12 10 10 6 5 3 3 4 4 1 1 1 2 3 3 3 1 2 2 4 5 4 2 4 7 9 6 3 4 5 4 4 5 4 3 2 2 1 2 2 2 2 3 3 2 3 5 4 3 4 5 7 8 13 10 11 13 13 13 12 11 11 11 11 13 13 13 10 9 9 6 4 4 4 1 0 3 4 4 3 2 2
17 15 13 12 11 10 10 7 7 5 3 5 3 2 1 1 3 4 4 4 3 2 2 3 3 2 3 3 3 6 6 7 4 3 1 3 2 2 2 3 2 1 1 1 1 1 2 2 4 5 5 4 4 4 4 6 10 13 18 18 16 15 16 17 16 15 14 11 10 14 16 14 9 8 8 5 7 8 8 6 3 2 4 2 2 2 2
15 13 11 11 8 6 6 5 6 4 2 5 5 6 8 9 8 6 5 3 2 1 1 1 2 2 3 4 5 4 7 3 3 1 1 2 1 1 1 1 2 2 2 1 0 1 1 1 2 4 1 2 2 3 3 6 10 17 20 21 21 22 21 20 19 17 17 15 11 14 16 12 5 5 6 5 4 4 6 8 5 2 2 2 3 4 3
13 12 10 7 4 4 4 4 2 1 4 1 3 4 4 5 4 2 3 2 1 1 1 1 3 3 3 1 2 2 4 3 2 2 1 1 0 1 1 2 2 1 1 2 0 0 2 1 3 4 4 2 1 2 5 9 14 17 21 26 26 24 20 19 18 18 17 15 14 16 18 14 10 10 11 11 8 5 7 9 10 8 6 5 5 4 3
11 9 6 3 1 1 1 0 2 4 3 6 1 4 6 3 2 4 3 0 2 2 2 2 1 2 3 2 1 1 1 2 2 2 2 0 0 0 1 2 1 1 2 1 0 2 2 2 2 3 2 3 1 4 6 10 16 18 20 21 20 16 13 13 17 18 16 15 15 15 14 12 14 12 11 11 9 4 5 8 10 10 8 6 7 8 7
10 6 4 4 3 3 2 3 3 3 4 2 3 5 9 6 5 3 2 2 1 2 2 1 1 1 1 4 4 2 2 2 1 1 1 1 1 0 1 1 1 1 1 2 2 2 2 2 2 2 2 2 2 3 10 13 16 19 23 20 18 13 7 9 12 9 10 12 15 14 14 14 13 12 12 11 8 7 6 7 8 6 6 7 7 7 7
7 4 3 2 2 2 4 4 4 4 1 5 8 9 8 5 2 2 1 1 1 1 2 2 1 2 2 1 2 2 2 3 1 1 1 1 2 0 1 1 1 0 1 2 2 2 2 2 2 1 2 2 6 11 11 10 14 17 20 19 18 17 17 17 12 6 8 9 11 12 13 12 12 10 9 9 9 6 7 9 8 6 5 5 6 7 6
2 3 3 3 3 3 3 3 3 7 13 15 12 6 3 3 1 2 1 1 1 1 3 2 3 2 2 2 2 1 1 0 2 1 0 1 1 0 1 1 1 1 2 2 1 2 3 1 1 1 3 6 5 7 10 11 13 14 17 20 20 18 18 17 18 12 5 8 9 11 10 11 12 10 11 11 8 8 8 7 5 4 3 4 6 7 7
5 2 2 2 2 3 2 1 8 15 8 3 3 2 2 2 2 2 3 2 3 3 3 3 2 2 3 3 3 1 1 2 3 1 2 0 1 1 2 1 0 0 1 0 1 2 2 0 2 2 3 8 11 13 12 11 13 15 16 17 19 21 19 19 19 16 14 6 7 11 10 10 11 10 9 8 7 6 5 4 5 4 4 5 7 8 6
2 3 2 3 2 2 4 5 13 6 3 2 3 2 1 3 1 1 1 2 0 1 3 2 2 2 3 2 1 1 2 0 1 2 2 2 2 1 1 1 1 0 2 3 2 1 2 3 3 2 8 10 10 11 11 13 14 16 16 17 19 22 23 22 21 19 18 17 17 9 4 3 1 5 7 6 5 5 4 4 4 5 5 7 9 6 2
3 4 4 2 3 3 4 5 3 3 2 3 2 3 1 0 2 1 1 0 1 1 0 2 2 1 4 3 3 2 1 2 1 0 0 2 1 1 1 0 0 1 1 3 2 1 1 1 3 6 10 11 11 11 10 12 14 15 15 17 17 18 23 23 23 21 20 18 17 16 14 15 14 12 8 3 3 3 3 4 5 5 8 8 4 1 6
2 2 3 4 5 2 4 3 3 2 4 2 1 1 0 1 0 2 2 2 4 2 3 2 2 2 2 1 1 1 1 2 2 0 1 2 3 2 1 2 1 0 2 1 2 2 2 2 3 5 9 11 11 11 11 11 11 13 17 17 16 17 19 22 24 23 22 19 17 17 18 20 18 13 12 12 10 10 9 6 4 3 2 2 3 4 9
7 3 2 3 3 3 3 2 3 3 0 1 1 1 1 1 3 4 3 1 3 2 1 1 3 2 1 1 1 3 1 2 2 2 1 1 2 1 1 2 1 2 2 1 1 2 4 4 4 8 8 8 9 10 11 11 9 11 13 13 14 14 15 17 18 20 21 20 19 19 18 19 18 16 14 14 16 14 14 14 10 7 9 9 10 11 6
3 3 1 3 2 2 1 1 2 1 1 1 1 3 5 5 4 3 5 5 2 3 2 2 2 2 4 2 1 1 3 2 1 1 3 2 1 2 2 2 4 2 0 2 2 4 2 2 5 5 8 10 10 10 9 8 8 8 10 13 12 13 14 14 16 19 20 18 19 20 20 20 19 19 18 17 17 16 19 18 15 16 15 12 15 15 10
2 2 1 1 1 1 1 2 2 1 2 3 2 5 5 8 7 6 6 3 3 6 4 2 3 2 3 1 2 2 2 1 3 1 3 2 2 2 2 3 2 2 3 3 3 2 2 5 7 6 7 9 9 8 7 8 8 8 8 10 13 14 14 15 16 15 16 17 18 19 20 19 19 18 18 17 16 16 20 18 16 17 15 13 14 15 10
2 2 1 1 4 2 1 1 0 1 1 2 4 6 6 4 3 5 4 6 6 6 5 4 4 2 1 2 2 3 1 2 2 2 2 1 2 4 2 1 2 4 4 3 2 4 5 6 7 6 7 7 6 7 7 7 7 7 7 10 10 12 13 13 12 13 14 15 16 17 16 17 18 18 16 17 18 19 19 18 17 16 14 14 14 13 10
2 1 1 1 1 2 0 1 3 3 5 5 5 5 7 7 7 5 4 6 8 8 5 3 6 1 1 2 1 1 2 2 2 3 2 2 3 2 2 3 4 3 2 3 2 2 3 5 6 6 7 6 6 7 8 9 10 10 9 9 9 9 10 11 12 12 11 13 14 14 14 16 17 17 16 18 18 18 19 18 20 19 15 13 12 11 11
1 1 0 1 3 1 4 4 2 3 7 6 6 5 5 4 5 6 6 7 8 7 6 6 5 3 1 1 1 4 4 3 2 4 3 2 0 2 1 3 3 2 1 2 4 6 5 5 7 8 7 7 6 5 7 8 7 7 8 8 9 9 9 10 10 10 10 10 10 11 12 13 14 15 17 18 18 17 16 16 16 16 16 15 14 14 14
1 0 0 1 1 3 4 7 7 6 5 5 6 6 7 5 6 6 7 8 8 5 5 4 4 3 3 4 4 3 4 3 2 1 2 3 3 3 3 2 4 3 3 4 4 5 5 6 5 7 7 8 8 7 6 5 4 6 7 7 7 7 7 7 7 7 8 8 8 9 9 9 10 11 12 13 14 13 12 13 13 13 12 13 14 16 16
0 0 1 0 2 4 5 4 5 5 4 4 5 5 6 4 6 4 6 7 7 5 2 2 2 3 3 3 1 2 3 2 3 1 4 7 6 4 3 2 1 2 3 1 2 4 5 5 6 6 6 6 7 7 7 7 6 5 5 6 5 6 7 7 7 8 7 6 7 7 6 5 6 7 9 10 10 9 11 11 11 10 10 10 11 12 13
1 1 2 2 1 1 2 4 5 5 6 6 5 5 6 6 6 5 4 5 8 7 3 4 3 2 2 2 1 1 3 2 2 5 5 6 2 4 6 5 4 2 2 2 2 2 3 4 5 5 6 6 6 6 5 6 6 4 5 5 5 5 5 6 8 8 8 6 5 6 7 7 7 6 5 4 4 5 7 9 9 8 8 7 8 9 9
1 2 4 1 0 1 4 2 2 3 3 4 4 4 5 3 2 3 4 6 6 7 7 4 3 2 1 3 3 2 1 1 3 3 5 5 2 6 6 7 7 6 4 4 4 4 3 3 4 5 5 5 5 5 4 5 5 6 6 6 5 6 6 5 4 4 4 3 3 3 2 3 2 3 5 7 7 7 7 6 5 5 5 5 6 7 9
Wind_Direction
329 331 332 333 333 335 334 338 338 342 349 352 345 313 317 344 294 291 300 305 350 346 297 289 348 336 351 339 335 355 305 334 324 323 3 313 358 330 299 335 325 312 336 331 318 321 323 320 305 346 331 312 328 329 329 345 337 332 325 334 350 335 218 272 255 263 259 257 199 173 178 182 199 211 218 206 191 190 178 168 179 177 186 224 249 260 252
327 327 329 329 331 332 335 337 338 339 353 349 333 319 332 317 312 315 320 342 359 320 329 347 340 325 318 335 350 322 314 311 330 354 335 319 329 323 326 327 337 332 326 325 314 345 333 2 344 334 333 305 330 324 328 347 332 339 341 339 333 324 338 15 307 293 267 267 195 172 174 186 203 200 206 220 207 181 182 169 160 180 197 187 152 228 277
324 324 325 327 328 331 334 336 336 338 344 349 337 325 317 300 292 291 319 354 350 331 353 334 317 336 352 358 338 328 322 336 323 320 306 330 339 322 327 331 321 311 317 311 322 355 360 320 339 331 314 297 319 313 339 329 316 321 318 327 316 275 267 290 258 227 208 206 199 183 180 189 190 202 197 212 224 186 172 200 184 189 211 187 191 242 255
323 324 324 325 327 329 331 334 336 335 338 346 340 314 314 349 326 332 339 344 323 357 354 3 2 352 348 342 325 322 318 317 307 329 316 24 360 7 329 311 329 301 309 317 322 331 16 344 309 328 310 327 315 327 321 313 313 315 333 334 330 277 279 262 269 243 264 305 288 276 174 174 192 192 205 193 224 215 179 156 144 187 216 184 210 166 218
320 321 323 325 326 329 330 331 334 334 333 342 331 303 321 300 323 347 336 334 338 352 357 356 354 335 324 315 330 317 321 317 308 354 303 54 12 319 314 321 314 317 321 324 331 335 352 323 299 318 321 319 306 311 314 309 314 323 336 337 327 299 279 264 251 251 258 262 265 293 200 177 182 194 202 196 197 222 199 172 205 161 125 211 225 156 151
320 322 324 325 326 327 327 328 331 332 328 337 324 326 355 344 343 322 347 327 317 336 347 341 324 311 319 319 320 307 312 328 330 325 329 327 2 337 342 303 311 319 330 334 319 346 319 305 303 334 319 325 334 326 320 315 321 347 333 335 329 325 287 342 331 303 293 285 286 279 305 258 185 190 210 207 190 205 220 185 172 154 151 193 206 160 155
320 322 323 324 324 322 323 325 325 327 322 333 314 315 358 287 326 309 358 334 321 313 301 302 312 316 325 315 300 318 337 331 329 319 313 320 329 39 309 312 318 320 328 321 316 321 327 317 343 323 310 332 334 322 330 320 23 358 337 331 328 327 291 341 327 315 296 290 305 313 281 301 12 201 202 224 202 193 214 209 183 168 161 198 172 165 162
320 321 322 323 320 319 318 319 318 318 323 320 301 268 321 345 342 326 329 298 297 290 301 317 321 315 322 306 352 352 334 318 321 308 311 313 311 343 305 314 319 321 325 333 321 331 333 336 325 317 315 322 297 298 253 296 322 351 329 327 321 341 320 339 329 319 311 302 323 302 300 282 230 236 209 214 218 192 199 219 214 167 164 197 160 142 171
320 320 321 322 321 321 318 315 315 307 331 312 292 305 170 291 295 311 308 308 299 309 315 313 318 311 323 345 341 337 330 319 325 308 316 308 331 334 314 312 309 310 313 315 306 314 309 299 280 280 289 281 282 312 289 316 308 323 324 333 318 329 318 328 331 339 320 343 304 295 299 317 312 272 244 58 307 200 183 212 208 175 175 180 131 140 179
320 320 320 319 318 316 314 313 308 303 251 275 264 268 149 254 276 300 330 289 307 306 298 297 311 295 338 323 322 319 314 311 322 318 316 325 310 299 293 301 319 309 320 317 323 325 311 300 293 281 265 250 253 248 273 275 287 299 303 314 309 318 325 337 339 337 300 326 315 271 282 314 302 237 214 274 212 302 187 200 205 212 161 172 145 210 211
320 320 319 318 317 315 314 310 301 296 290 279 281 267 320 257 291 324 262 290 291 283 305 302 290 293 307 309 308 311 314 316 320 325 317 317 318 330 319 336 336 319 309 323 319 298 286 282 280 268 262 281 272 248 250 258 261 271 287 304 292 302 313 314 330 314 304 310 322 307 333 345 242 349 68 236 23 308 208 183 204 217 154 173 156 206 147
319 320 319 318 317 316 313 307 296 283 264 270 257 267 247 261 253 205 272 280 289 305 298 281 298 307 307 309 305 306 311 315 314 306 302 315 309 313 321 351 343 296 342 327 321 314 310 298 286 271 270 253 246 246 249 255 258 258 257 264 285 303 306 302 317 296 307 315 325 353 317 248 280 317 306 331 308 32 61 31 184 219 214 157 147 174 139
319 319 317 317 315 315 312 306 297 283 259 254 256 259 235 173 236 233 212 259 268 292 290 288 296 296 299 300 301 301 306 312 310 305 313 329 320 323 339 335 300 307 316 339 333 323 329 316 302 294 283 279 278 265 249 241 249 252 250 252 275 282 295 312 302 305 285 323 15 97 250 308 301 300 360 333 179 85 55 77 39 10 323 216 155 162 108
320 320 319 318 318 315 313 307 295 286 268 246 251 247 241 209 236 224 195 253 278 257 275 291 289 294 299 305 307 306 310 318 323 320 315 313 322 331 320 311 328 342 338 336 309 330 302 301 317 312 303 285 249 250 241 238 234 240 239 249 246 260 288 280 317 305 348 329 297 265 316 309 304 353 27 10 29 15 110 79 22 357 4 343 142 122 116
320 320 320 318 317 314 312 304 298 290 282 255 244 236 239 230 220 238 197 203 264 280 270 269 285 299 312 309 312 313 310 330 326 322 320 321 328 305 299 321 333 344 346 331 307 334 286 306 310 307 315 304 299 294 253 220 222 220 233 234 239 260 267 304 330 289 342 319 326 317 344 316 352 348 335 328 297 77 72 80 32 5 357 355 0 83 94
320 320 319 318 315 314 310 307 304 294 280 260 240 239 242 218 220 210 217 226 285 290 234 225 245 287 304 303 305 303 321 332 312 301 313 329 320 325 343 331 333 342 343 310 318 318 294 291 296 322 311 321 323 308 321 274 206 203 212 218 234 239 249 275 275 289 320 315 314 292 259 114 2 345 331 326 321 79 92 68 38 353 349 1 11 33 35
320 320 319 316 315 313 312 310 306 295 287 270 252 246 245 198 211 206 218 209 202 244 282 311 308 296 292 291 307 316 147 244 300 336 319 321 321 324 331 333 336 347 344 313 355 339 323 302 309 259 294 320 313 320 325 331 321 252 191 205 217 233 238 244 257 271 260 292 294 285 17 29 331 326 331 319 304 19 63 64 27 336 332 2 16 32 33
320 319 317 315 314 314 313 313 309 304 293 284 266 249 252 192 202 201 206 216 219 269 253 256 270 272 273 302 302 305 299 304 323 271 264 294 318 348 326 331 352 341 354 351 33 321 318 314 302 321 307 330 317 316 345 338 322 358 323 172 188 205 229 233 259 259 260 246 250 256 320 337 342 344 340 336 307 45 66 90 336 307 317 16 20 35 25
319 317 316 315 316 316 314 312 310 308 307 301 292 279 251 219 201 200 214 220 194 243 191 282 296 279 275 286 285 292 302 308 297 305 314 309 119 320 325 26 17 331 8 356 325 353 333 292 313 324 299 350 334 348 335 337 329 330 332 96 194 202 214 234 232 261 268 268 266 285 347 14 337 336 4 358 16 52 75 121 246 297 359 15 21 23 31
318 317 318 319 319 317 314 312 313 312 310 303 282 257 265 247 203 195 212 232 201 254 277 275 267 276 288 286 290 288 294 287 292 274 296 295 323 327 318 330 338 261 307 329 355 86 348 336 351 317 338 340 322 331 303 315 328 302 308 310 241 182 180 225 221 251 277 289 307 38 355 326 347 338 25 18 56 84 171 244 5 27 17 20 17 17 12
318 319 320 321 318 316 315 315 314 313 311 307 294 288 280 207 215 207 211 219 231 275 271 247 260 270 277 277 282 285 284 281 292 295 304 281 304 313 319 337 358 346 339 350 336 13 336 313 339 338 328 309 305 321 347 332 304 338 339 340 310 23 256 302 240 204 282 312 48 185 219 285 351 11 48 29 53 114 85 24 29 23 27 16 15 11 15
319 321 322 320 318 317 317 317 315 311 307 299 289 270 270 233 210 203 202 199 218 225 263 317 316 291 284 284 278 273 273 274 274 273 289 295 290 286 291 331 54 285 331 308 337 321 107 300 283 338 335 313 333 330 320 315 315 343 331 343 313 12 309 172 248 339 346 350 347 253 251 311 23 22 357 25 52 48 52 49 33 15 25 18 16 7 7
321 323 322 319 318 319 318 316 313 310 304 294 281 244 259 298 257 213 202 211 219 261 282 278 277 279 273 262 255 254 255 255 263 264 252 255 281 270 310 39 325 131 329 297 176 243 302 290 307 301 298 334 345 320 326 336 320 358 344 327 287 337 341 324 295 245 315 284 226 214 5 352 353 359 8 10 34 40 42 36 28 11 18 21 13 353 6
323 322 321 320 320 319 318 316 315 311 302 289 262 260 274 259 299 116 153 214 232 301 272 236 241 270 285 308 294 237 225 228 224 235 228 215 265 277 142 195 281 193 192 206 197 299 338 309 295 296 298 325 330 334 349 344 325 349 346 336 343 326 5 348 323 318 17 313 57 17 0 340 346 323 359 358 16 56 50 47 27 13 13 14 6 2 5
323 322 321 322 321 321 321 318 315 317 304 288 271 254 254 268 213 186 181 207 203 207 286 307 261 266 277 275 269 270 272 267 250 218 208 204 219 280 287 294 192 276 315 337 286 294 177 300 315 322 306 319 38 317 324 296 302 349 327 309 329 308 353 324 317 315 287 283 321 322 323 13 293 327 356 29 28 42 47 51 44 20 8 11 7 0 6
322 322 322 322 323 324 325 321 318 315 305 277 260 259 245 248 173 185 221 288 318 172 278 306 316 323 330 326 313 310 309 292 291 281 235 211 224 249 277 300 310 320 310 304 293 298 316 285 296 290 312 305 136 272 301 302 290 299 277 291 294 304 319 288 336 308 311 310 294 280 273 278 279 279 345 51 32 36 28 34 38 40 16 358 6 5 4
323 322 322 323 325 326 325 325 317 303 279 265 239 221 234 250 179 175 199 184 273 267 202 248 296 313 343 324 303 297 275 257 266 260 271 273 239 218 221 235 260 273 308 333 332 313 299 312 298 313 329 305 357 306 299 292 307 309 301 293 299 300 286 295 296 292 298 282 298 38 12 344 346 32 22 15 17 16 19 29 38 73 50 2 348 359 2
322 322 323 325 325 326 325 320 316 306 269 242 245 253 244 224 189 212 207 125 179 291 321 302 310 310 315 278 296 308 284 174 194 250 266 252 256 306 306 322 349 343 333 352 326 340 336 314 317 335 311 0 357 318 324 298 286 265 246 251 239 253 284 328 306 312 299 324 325 340 321 284 221 351 4 38 18 11 16 20 32 27 38 17 354 354 347
323 324 323 323 325 325 325 316 310 319 280 240 204 199 217 235 169 191 214 124 80 271 278 281 270 270 324 344 319 346 10 11 2 332 265 284 335 350 322 351 5 6 342 333 298 309 300 298 323 325 348 16 322 303 336 315 307 277 268 299 310 318 329 313 311 316 298 310 326 336 324 312 330 339 349 19 29 341 328 18 350 6 335 321 354 9 358
324 323 322 321 323 324 320 319 310 305 271 247 223 219 186 124 140 159 171 162 144 139 317 331 336 333 336 303 333 352 350 1 359 1 2 353 310 225 154 85 34 65 73 18 62 307 333 320 302 307 341 22 348 316 289 301 295 279 287 296 301 303 302 296 294 291 293 320 315 310 310 305 308 314 298 305 300 298 289 285 288 284 282 34 42 36 5
321 321 319 319 322 320 321 316 314 306 276 247 246 266 259 1 91 97 122 127 131 223 268 232 264 289 289 287 338 355 332 326 324 26 28 36 45 53 41 52 62 84 7 29 351 312 360 287 337 300 11 346 356 298 295 305 287 289 279 277 280 283 284 285 293 288 290 292 296 299 299 296 300 296 285 281 297 283 270 240 318 342 342 11 33 21 335
318 316 317 318 320 320 324 338 351 355 272 276 315 16 2 80 88 108 117 128 130 221 274 308 314 344 339 307 359 328 329 319 321 69 87 360 7 14 56 100 115 94 153 204 182 326 270 273 270 287 313 322 335 277 289 277 275 275 287 295 291 286 285 283 280 282 281 279 289 293 282 276 272 272 279 291 293 296 297 296 292 293 329 322 306 277 255
314 313 314 316 316 332 337 351 19 360 359 330 327 79 82 100 108 121 122 148 160 43 200 313 21 304 300 338 319 343 350 334 82 300 46 350 359 12 53 38 101 73 44 320 171 256 318 336 337 309 242 127 258 272 272 253 256 270 284 292 290 285 279 272 270 269 268 266 257 256 263 262 265 277 281 288 286 311 316 308 307 313 288 322 329 323 310
313 315 317 312 318 18 353 357 297 292 241 210 230 170 147 145 154 205 166 227 30 73 286 5 358 348 285 331 322 34 5 9 39 315 26 354 224 49 53 74 34 71 111 142 237 209 301 292 276 282 328 281 190 268 255 253 259 280 288 286 280 274 264 261 258 255 251 251 247 247 254 262 266 269 282 284 289 304 304 309 312 318 324 327 321 315 317
311 313 311 279 234 354 231 45 292 243 256 242 133 95 136 186 229 152 171 88 268 191 198 113 149 312 334 302 71 353 350 289 8 0 11 55 354 114 166 79 14 60 353 86 8 243 316 275 323 307 288 327 313 250 253 267 283 286 285 293 295 282 260 254 252 244 241 234 239 243 244 246 247 249 249 257 264 278 297 295 295 296 305 314 320 324 325
313 315 291 267 238 214 242 180 210 256 235 221 111 125 124 155 140 162 57 110 277 324 346 58 275 280 220 336 342 353 82 284 282 299 73 145 174 198 333 159 71 210 154 140 208 155 204 216 90 274 10 340 264 236 266 283 300 319 329 324 326 341 328 248 246 237 223 219 225 230 235 238 239 242 242 247 251 246 247 270 282 292 301 309 311 316 324
288 281 252 216 197 243 231 241 179 214 6 106 123 127 142 145 56 34 97 242 133 17 308 332 308 341 73 278 226 258 324 9 145 221 188 275 316 132 244 246 40 201 192 237 231 268 60 79 55 311 307 301 287 282 295 324 339 339 340 341 354 2 3 5 350 237 225 217 216 220 223 229 233 235 240 234 231 230 236 239 246 259 274 291 300 295 292
270 270 223 209 232 249 220 175 151 123 109 118 128 126 150 220 215 154 91 235 178 173 234 225 254 226 19 6 351 93 179 159 160 252 164 154 251 231 142 307 282 323 341 326 341 120 145 105 33 353 278 257 277 333 352 351 350 348 353 359 5 6 8 8 6 3 238 218 218 218 217 220 225 221 220 226 226 230 227 232 243 240 253 270 276 277 282
146 155 219 253 269 285 3 96 134 139 131 156 243 255 160 160 211 226 184 162 183 214 169 215 266 166 195 231 258 212 320 326 307 358 1 141 53 308 179 342 254 183 293 72 89 155 9 62 23 332 316 359 15 6 1 357 1 1 0 4 9 11 12 15 13 10 5 335 232 199 203 206 211 216 211 215 216 221 224 220 228 230 239 250 259 263 263
214 218 230 197 243 44 59 116 151 158 208 228 196 242 220 151 236 328 164 158 257 275 171 265 146 190 226 237 263 262 159 177 323 338 317 304 161 255 245 154 248 139 14 24 15 67 67 11 332 337 18 11 25 10 7 8 10 7 7 6 12 17 14 13 14 15 19 24 29 33 40 13 275 220 197 204 213 214 215 226 233 235 237 244 248 245 254
213 261 273 304 18 60 123 144 193 236 235 234 192 207 253 135 181 201 245 220 141 325 318 218 266 214 202 192 187 240 126 142 189 135 315 263 113 123 174 168 197 72 12 33 1 49 51 32 360 19 11 5 11 15 13 16 16 11 10 10 13 20 21 18 15 8 13 23 28 36 37 43 37 21 0 326 220 220 225 223 227 231 241 245 234 139 108
338 313 318 309 270 249 145 198 217 247 213 234 101 273 345 354 21 64 315 360 1 22 264 249 283 291 287 299 264 199 247 116 93 257 249 263 171 204 263 160 188 73 39 84 139 28 8 14 333 18 358 358 4 16 20 17 13 14 15 14 17 20 25 24 20 18 18 25 30 37 43 46 42 37 42 43 37 39 28 6 327 252 214 154 99 109 147
291 206 218 268 243 200 185 261 198 192 68 317 28 352 353 31 13 355 316 24 94 293 242 184 231 201 244 86 225 198 209 132 162 203 227 241 105 260 271 34 357 53 50 122 43 17 21 9 16 14 348 350 1 20 24 21 17 21 19 18 21 20 25 29 27 22 23 28 31 37 39 43 42 39 41 48 52 51 54 40 22 37 52 58 73 61 16
214 185 210 208 217 256 129 304 265 1 349 288 331 1 346 0 35 4 356 21 344 306 343 306 336 349 349 207 306 176 153 180 233 179 230 304 19 354 12 35 29 74 159 64 25 37 35 44 359 338 354 8 20 23 27 24 20 20 26 21 21 25 26 30 32 33 28 28 32 35 37 36 38 36 36 39 43 48 58 46 33 50 50 48 62 62 36
286 237 262 355 344 265 63 323 287 137 355 2 353 8 353 12 5 12 13 358 315 327 327 316 323 8 298 247 140 248 244 349 153 257 10 352 78 46 5 17 359 33 27 23 21 10 9 25 353 357 9 21 9 8 22 30 22 23 24 29 28 28 30 34 35 35 35 35 35 37 36 34 37 36 36 40 40 40 54 51 41 47 44 45 58 64 45
241 295 298 341 310 299 157 185 277 350 20 30 21 359 345 35 25 9 12 337 314 322 345 341 318 242 312 321 330 346 297 28 42 349 326 353 56 57 77 167 4 28 28 23 11 23 22 1 349 345 13 39 13 357 7 19 24 25 30 37 28 32 33 36 36 43 44 45 43 41 40 41 39 36 34 37 39 39 43 46 43 44 45 45 48 57 59
286 303 285 275 248 272 176 28 326 23 19 48 41 12 350 3 35 15 356 339 318 310 304 311 273 160 51 321 22 274 25 37 38 1 312 43 30 85 48 35 31 23 3 358 356 334 341 341 328 347 12 30 27 19 24 30 28 31 34 30 30 34 33 35 37 38 42 50 51 50 51 51 49 44 38 41 43 42 40 40 41 39 40 45 47 52 50
263 255 279 352 272 331 355 5 342 65 47 29 15 4 354 24 22 7 357 333 310 305 349 334 355 1 55 61 210 46 23 355 29 46 354 23 20 23 21 43 33 54 47 329 350 332 322 327 344 347 355 19 29 26 31 41 38 32 30 32 28 29 36 45 44 39 34 40 51 56 54 57 61 57 52 50 48 43 41 40 42 38 33 32 35 43 47
239 111 148 223 311 29 357 348 355 42 41 42 21 9 350 10 24 12 352 325 314 343 14 20 7 316 26 322 9 22 49 1 22 25 321 22 37 26 5 37 343 344 28 19 327 325 341 347 326 332 357 14 10 17 32 46 45 42 35 38 32 28 22 37 49 48 40 41 47 57 67 69 71 74 74 71 69 60 54 53 50 47 39 37 39 37 34
19 2 307 2 345 45 344 360 3 5 15 32 14 18 334 18 14 21 348 318 331 325 346 72 70 2 24 339 358 14 62 26 50 10 40 44 25 22 22 33 50 311 332 298 293 340 349 348 345 10 353 1 10 13 10 15 31 47 37 38 37 44 44 31 34 41 36 42 50 55 58 61 67 74 83 89 93 93 80 72 66 61 59 52 48 51 51
231 186 194 123 15 45 330 30 6 358 3 22 12 12 332 20 12 4 341 330 342 323 54 32 21 25 5 2 346 350 47 356 70 62 49 38 12 27 26 13 11 12 93 176 228 102 42 346 347 350 350 3 5 9 9 8 10 42 54 43 42 44 53 47 38 37 36 24 34 51 53 58 54 56 59 70 81 82 83 77 70 64 58 54 53 54 54
313 338 329 347 235 169 95 66 59 6 24 22 20 3 321 8 6 10 352 14 353 358 12 21 37 7 36 29 3 12 347 4 56 38 55 72 20 16 19 8 359 17 46 68 36 60 69 10 350 352 339 351 357 357 358 12 10 15 42 61 41 33 36 32 38 57 59 34 1 21 36 20 23 50 59 59 58 59 60 65 69 72 59 46 41 42 49